When you browse on this site, cookies collect data to enhance your experience and personalize the content and advertising you see.
Visit our Privacy Policy to learn more. By continuing to use the site, you agree to this use of cookies and data.
  • In Czech Republic
  • List of Countries
  • For 7 days
  • Water Temperature
  • Weather Map
  • Weather Widgets
  • user-avatar
    Login

    Hourly Weather Bolshoy Dorok

    Today, 4 June, Thursday

    Time Temperature Precipitation Wind Pressure Humidity
    00:00 +12°C° 0.5 mm 4 mps 737 mmHg 92%
    01:00 +12°C° 0.5 mm 5 mps 737 mmHg 94%
    02:00 +12°C° 0 mm 5 mps 736 mmHg 96%
    03:00 +12°C° 1.9 mm 5 mps 735 mmHg 96%
    04:00 +11°C° 1.9 mm 6 mps 734 mmHg 96%
    05:00 +11°C° 1.9 mm 7 mps 733 mmHg 96%
    06:00 +11°C° 1.1 mm 6 mps 733 mmHg 96%
    07:00 +11°C° 1.1 mm 6 mps 732 mmHg 96%
    08:00 +13°C° 1.1 mm 6 mps 732 mmHg 96%
    09:00 +14°C° 0.3 mm 6 mps 732 mmHg 94%
    10:00 +15°C° 0.3 mm 6 mps 732 mmHg 92%
    11:00 +16°C° 0.3 mm 6 mps 732 mmHg 90%
    12:00 +16°C° 0.3 mm 6 mps 732 mmHg 86%
    13:00 +17°C° 0.3 mm 5 mps 732 mmHg 83%
    14:00 +17°C° 0.3 mm 5 mps 732 mmHg 79%
    15:00 +18°C° 0.2 mm 4 mps 732 mmHg 79%
    16:00 +18°C° 0.2 mm 4 mps 732 mmHg 80%
    17:00 +18°C° 0.2 mm 3 mps 732 mmHg 80%
    18:00 +17°C° 0.3 mm 3 mps 732 mmHg 84%
    19:00 +16°C° 0.3 mm 3 mps 732 mmHg 88%
    20:00 +14°C° 0.3 mm 2 mps 732 mmHg 92%
    21:00 +14°C° 0 mm 2 mps 733 mmHg 93%
    22:00 +13°C° 0 mm 2 mps 733 mmHg 94%
    23:00 +12°C° 0 mm 2 mps 733 mmHg 95%

    Tomorrow, 5 June, Friday

    Time Temperature Precipitation Wind Pressure Humidity
    00:00 +12°C° 0.1 mm 2 mps 733 mmHg 95%
    01:00 +10°C° 0.1 mm 2 mps 734 mmHg 95%
    02:00 +10°C° 0.1 mm 2 mps 734 mmHg 96%
    03:00 +10°C° 0 mm 3 mps 734 mmHg 95%
    04:00 +11°C° 0 mm 3 mps 734 mmHg 95%
    05:00 +11°C° 0 mm 3 mps 735 mmHg 94%
    06:00 +12°C° 0 mm 4 mps 735 mmHg 89%
    07:00 +14°C° 0 mm 4 mps 736 mmHg 84%
    08:00 +15°C° 0 mm 5 mps 736 mmHg 78%
    09:00 +16°C° 0.1 mm 5 mps 736 mmHg 73%
    10:00 +17°C° 0.1 mm 5 mps 736 mmHg 68%
    11:00 +19°C° 0.1 mm 5 mps 736 mmHg 62%
    12:00 +19°C° 0.6 mm 5 mps 736 mmHg 67%
    13:00 +17°C° 0.6 mm 5 mps 736 mmHg 71%
    14:00 +17°C° 0.6 mm 5 mps 737 mmHg 76%
    15:00 +17°C° 0.5 mm 5 mps 737 mmHg 78%
    16:00 +17°C° 0.5 mm 5 mps 737 mmHg 80%
    17:00 +17°C° 0.5 mm 4 mps 737 mmHg 82%
    18:00 +15°C° 0.3 mm 4 mps 737 mmHg 86%
    19:00 +14°C° 0.3 mm 3 mps 737 mmHg 89%
    20:00 +13°C° 0.3 mm 3 mps 737 mmHg 93%
    21:00 +12°C° 0 mm 3 mps 737 mmHg 94%
    22:00 +11°C° 0 mm 3 mps 737 mmHg 95%
    23:00 +10°C° 0 mm 2 mps 737 mmHg 96%

    Day after tomorrow, 6 June, Saturday

    Time Temperature Precipitation Wind Pressure Humidity
    00:00 +9°C° 0 mm 2 mps 738 mmHg 97%
    01:00 +9°C° 0 mm 2 mps 738 mmHg 98%
    02:00 +8°C° 0 mm 2 mps 738 mmHg 98%
    03:00 +9°C° 0 mm 2 mps 738 mmHg 97%
    04:00 +10°C° 0 mm 3 mps 738 mmHg 97%
    05:00 +10°C° 0 mm 3 mps 738 mmHg 96%
    06:00 +11°C° 0 mm 3 mps 738 mmHg 94%
    07:00 +12°C° 0 mm 3 mps 739 mmHg 93%
    08:00 +12°C° 0 mm 4 mps 739 mmHg 91%
    09:00 +14°C° 0 mm 4 mps 739 mmHg 87%
    10:00 +15°C° 0 mm 4 mps 739 mmHg 83%
    11:00 +17°C° 0 mm 4 mps 739 mmHg 79%
    12:00 +19°C° 0 mm 4 mps 739 mmHg 75%
    13:00 +20°C° 0 mm 4 mps 739 mmHg 71%
    14:00 +22°C° 0 mm 4 mps 739 mmHg 67%
    15:00 +22°C° 0.4 mm 4 mps 739 mmHg 73%
    16:00 +21°C° 0.4 mm 4 mps 738 mmHg 79%
    17:00 +21°C° 0.4 mm 4 mps 738 mmHg 84%
    18:00 +20°C° 1 mm 4 mps 738 mmHg 88%
    19:00 +19°C° 1 mm 4 mps 739 mmHg 91%
    20:00 +18°C° 1 mm 3 mps 739 mmHg 94%
    21:00 +18°C° 0.4 mm 3 mps 739 mmHg 95%
    22:00 +17°C° 0.4 mm 3 mps 739 mmHg 95%
    23:00 +17°C° 0.4 mm 3 mps 739 mmHg 96%

    7 June, Sunday

    Time Temperature Precipitation Wind Pressure Humidity
    00:00 +16°C° 0 mm 3 mps 740 mmHg 96%
    01:00 +16°C° 0 mm 2 mps 740 mmHg 97%
    02:00 +15°C° 0 mm 2 mps 741 mmHg 97%
    03:00 +16°C° 0 mm 2 mps 741 mmHg 97%
    04:00 +16°C° 0 mm 2 mps 742 mmHg 96%
    05:00 +16°C° 0 mm 2 mps 742 mmHg 95%
    06:00 +18°C° 0 mm 2 mps 743 mmHg 90%
    07:00 +19°C° 0 mm 2 mps 743 mmHg 85%
    08:00 +20°C° 0 mm 2 mps 744 mmHg 79%
    09:00 +21°C° 0 mm 2 mps 744 mmHg 73%
    10:00 +23°C° 0 mm 2 mps 744 mmHg 66%
    11:00 +24°C° 0 mm 2 mps 745 mmHg 60%
    12:00 +25°C° 0 mm 1 mps 745 mmHg 57%
    13:00 +26°C° 0 mm 1 mps 745 mmHg 54%
    14:00 +26°C° 0 mm 1 mps 745 mmHg 52%
    15:00 +26°C° 0 mm 1 mps 745 mmHg 55%
    16:00 +26°C° 0 mm 1 mps 745 mmHg 58%
    17:00 +25°C° 0 mm 1 mps 745 mmHg 61%
    18:00 +23°C° 0 mm 1 mps 745 mmHg 67%
    19:00 +22°C° 0 mm 1 mps 745 mmHg 72%
    20:00 +19°C° 0 mm 2 mps 745 mmHg 78%
    21:00 +18°C° 0 mm 2 mps 745 mmHg 80%
    22:00 +17°C° 0 mm 2 mps 745 mmHg 82%
    23:00 +16°C° 0 mm 2 mps 745 mmHg 84%

    8 June, Monday

    Time Temperature Precipitation Wind Pressure Humidity
    00:00 +16°C° 0.2 mm 2 mps 745 mmHg 86%
    01:00 +16°C° 0.2 mm 2 mps 745 mmHg 88%
    02:00 +16°C° 0.2 mm 2 mps 745 mmHg 90%
    03:00 +16°C° 0.5 mm 2 mps 745 mmHg 91%
    04:00 +17°C° 0.5 mm 2 mps 745 mmHg 92%
    05:00 +17°C° 0.5 mm 2 mps 745 mmHg 93%
    06:00 +19°C° 0 mm 2 mps 745 mmHg 89%
    07:00 +21°C° 0 mm 2 mps 745 mmHg 85%
    08:00 +23°C° 0 mm 2 mps 745 mmHg 81%
    09:00 +24°C° 0.2 mm 2 mps 745 mmHg 76%
    10:00 +26°C° 0.2 mm 2 mps 745 mmHg 71%
    11:00 +27°C° 0.2 mm 2 mps 745 mmHg 66%
    12:00 +27°C° 0.4 mm 2 mps 745 mmHg 65%
    13:00 +28°C° 0.4 mm 2 mps 745 mmHg 64%
    14:00 +28°C° 0.4 mm 2 mps 745 mmHg 64%
    15:00 +28°C° 0.7 mm 2 mps 744 mmHg 67%
    16:00 +27°C° 0.7 mm 2 mps 744 mmHg 71%
    17:00 +27°C° 0.7 mm 2 mps 744 mmHg 75%
    18:00 +25°C° 0.4 mm 1 mps 744 mmHg 79%
    19:00 +24°C° 0.4 mm 1 mps 744 mmHg 83%
    20:00 +22°C° 0.4 mm 1 mps 744 mmHg 87%
    21:00 +21°C° 0 mm 1 mps 744 mmHg 88%
    22:00 +20°C° 0 mm 1 mps 745 mmHg 90%
    23:00 +20°C° 0 mm 1 mps 745 mmHg 91%

    9 June, Tuesday

    Time Temperature Precipitation Wind Pressure Humidity
    00:00 +19°C° 0 mm 1 mps 745 mmHg 91%
    01:00 +19°C° 0 mm 1 mps 745 mmHg 91%
    02:00 +19°C° 0 mm 1 mps 745 mmHg 92%
    03:00 +19°C° 0 mm 1 mps 745 mmHg 90%
    04:00 +20°C° 0 mm 1 mps 745 mmHg 89%
    05:00 +21°C° 0 mm 1 mps 745 mmHg 87%
    06:00 +22°C° 0 mm 1 mps 746 mmHg 82%
    07:00 +24°C° 0 mm 1 mps 746 mmHg 77%
    08:00 +25°C° 0 mm 1 mps 746 mmHg 72%
    09:00 +26°C° 0.3 mm 1 mps 746 mmHg 68%
    10:00 +27°C° 0.3 mm 1 mps 746 mmHg 64%
    11:00 +28°C° 0.3 mm 1 mps 746 mmHg 60%
    12:00 +28°C° 0.5 mm 1 mps 746 mmHg 60%
    13:00 +28°C° 0.5 mm 1 mps 746 mmHg 60%
    14:00 +29°C° 0.5 mm 2 mps 745 mmHg 61%
    15:00 +28°C° 0.4 mm 2 mps 745 mmHg 64%
    16:00 +28°C° 0.4 mm 1 mps 745 mmHg 68%
    17:00 +27°C° 0.4 mm 1 mps 745 mmHg 71%
    18:00 +26°C° 0.1 mm 1 mps 745 mmHg 75%
    19:00 +24°C° 0.1 mm 1 mps 745 mmHg 78%
    20:00 +23°C° 0.1 mm 1 mps 745 mmHg 82%
    21:00 +21°C° 0 mm 2 mps 745 mmHg 84%
    22:00 +20°C° 0 mm 2 mps 745 mmHg 87%
    23:00 +19°C° 0 mm 2 mps 746 mmHg 89%
    Show more